1998-067LN

Last updated on Thu May 25 2017 01:15:03 GMT+0100 (British Summer Time)

1 42705U 98067LN 17144.25343451 .00010272 00000-0 15785-3 0 9993 2 42705 51.6420 157.5594 0002483 170.2089 279.2401 15.54881224 1194
UTC large
Height (km)
Speed (km/s)
/
Latitude / Longitude
Inclination (degrees)
Orbital Period (minutes)
Azimuth
Elevation
Range (km)
Doppler Factor

Next 0 passes for location: London (51.5072 / 0.1276)

Sorry there are no passes over London.